Location: Unspecified
(0.0000°N, 0.0000°E)
Time: 01:02:05
(UTC+00:00)

Vanguard 2 - Pass Details

Date: 12 December 2017
Orbit: 552 x 2940 km, 32.9° (Epoch: 16 January)

Event Time Altitude Azimuth Distance (km) Brightness Sun altitude
Rises 12:12:12 0° 239° (WSW) 6,562 12.5 66.5°
Reaches altitude 10° 12:16:58 10° 241° (WSW) 5,321 12.2 66.2°
Maximum altitude 12:31:42 71° 322° (NW) 1,939 10.6 65.1°
Drops below altitude 10° 12:40:30 10° 46° (NE) 3,323 10.6 64.3°
Sets 12:42:49 0° 48° (NE) 4,039 11.0 64.0°
